Weather in Oglongi

Russia / Khabarovsk Krai     52°56′30″N   138°53′28″E
temp.,
°C
wind,
m/s
gust,
m/s
humid.,
%
clouds,
%
prec.,
mm/h
press.,
hPa
HPBL,
m
27 february, sat
sat2701:00−21wsw22918 0.0 102820
04:00−22wsw12904 0.0 102820
07:00−23wsw12920 0.0 102820
10:00−17wsw12880 0.0 1028168
13:00−10sw138140 0.0 1027506
16:00−9se128369 0.0 1024449
19:00−15ese1198100 0.0 102321
22:00−15ese1197100 0.1 102021
28 february, sun
sun2801:00−15ese2297100 0.5 1016141
04:00−15ese1197100 2.1 101289
07:00−15wnw1197100 0.6 101130
10:00−13wnw2591100 0.6 1011390
13:00−12nw4684100 0.1 1012659
16:00−14nw488699 0.1 1013577
19:00−19nw3792100 0.0 1016254
22:00−20wnw3994100 0.0 1017336
1 march, mon
mon101:00−21w359590 0.0 1018121
04:00−20w3109687 0.0 1020374
07:00−19wnw31191100 0.1 1021843
10:00−18wnw51080100 0.1 10221092
13:00−16nw5873100 0.0 10221386
16:00−15nw2389100 0.2 1021575
19:00−19n2495100 0.4 1022160
22:00−22w1190100 0.7 102420
2 march, tue
tue201:00−23sw1287100 0.0 102420
04:00−24sw2294100 0.0 102526
07:00−27wsw2287100 0.0 102627
10:00−24wsw2477100 0.0 1026250
13:00−20sw477498 0.0 1026705
16:00−18w466981 0.0 10261319
19:00−24sw228349 0.0 102622
22:00−26sw228743 0.0 102721
3 march, wed
wed301:00−28wsw22850 0.0 102619
04:00−29wsw22850 0.0 102619
07:00−30wsw22870 0.0 102519
10:00−23wsw13810 0.0 1023200
13:00−16sw24690 0.0 1021526
16:00−13ssw13730 0.0 1018692
19:00−20ese129334 0.0 101620
22:00−21e119664 0.0 101420